CZ-5 R/B (47098 NORAD) Tracking and Keplerian Element Data

This shows tracking and keplerian element data for the satellite.

Feedback or suggestion? Click here.




ElementValue
Catalog47098
NameCZ-5 R/B
Epoch Orbit2
Epoch Day329.06
Epoch Year2020
RAAN2.04
Inclination21.247
Eccentricity0.9576443
Argument of Perigee227.673
Mean Anonmoly9.551
Mean Motion0.14472306
Decay Rate-0.00137672
L11 47098U 20087B 20329.06000000 -.00137672 78887-3 00000+0 0 9994
L22 47098 21.2470 2.0400 9576443 227.6730 9.5510 0.14472306 26

Live tracking and technical data element details for CZ-5 R/B (NORAD 47098). CZ-5 R/B can be tracked NOW for your location showing map with azimuth and elevation plus other details from your city location.

Track the satellite on the map from your city or location and see movement details for azimuth, elevation, latitude, longitude, range, height, and movement on the map or in text.







IsCatalogInMostPopularTable: catalog: 47098, numindb: 18
Update: records affected: 1



GetName: 47098 CZ-5 R/B

Hit Count: updated at: Tue, 19 Jan 2021 01:43:41 GMT